Regional Weather Roundup
Issued by NWS

Home | Current Version | Previous Version | Graphics & Text | Print | Product List | Glossary On
Versions: 1 2 3 4 5 6 7 8 9 10 11 12 13 14 15 16 17 18 19 20 21 22 23 24 25 26 27 28 29 30 31 32 33 34 35 36 37 38 39 40 41 42 43 44 45 46 47 48 49 50
000
ASUS43 KIND 272059
RWRIN

WEATHER ROUNDUP FOR INDIANA
NATIONAL WEATHER SERVICE INDIANAPOLIS IN
400 PM EST SAT DEC 27 2014

NOTE: "FAIR" INDICATES FEW OR NO CLOUDS BELOW 12,000 FEET WITH NO
SIGNIFICANT WEATHER AND/OR OBSTRUCTIONS TO VISIBILITY.

* - STATION DOES NOT REPORT WEATHER SUCH AS PRECIPITATION OR FOG.

+ - STATION NOT QUALITY CONTROLLED BY THE NATIONAL WEATHER SERVICE.
    USE DATA WITH CAUTION...ESPECIALLY DEWPOINT AND RELATIVE
    HUMIDITY OBSERVATIONS.

INZ001>003-010>013-019-020-272200-
NORTHWEST INDIANA

CITY           SKY/WX    TMP DP  RH WIND       PRES   REMARKS
GARY /AIRPORT/ CLOUDY    41  28  60 W23G39    30.03R
KNOX *+        CLOUDY    40  35  81 W24       30.03R
VALPARAISO     CLOUDY    37  34  87 W21G30    30.03R

$$

LMZ046-743>745-272200-
SOUTHERN LAKE MICHIGAN

STATION/POSITION TIME  TEMP WIND        PRES
                       AIR  DIR/SP/G
                 (UTC) (F)  (DEG/KT/KT) (MB)
MICHIGAN CITY    2000   39  230/ 24/ 28   N/A

$$

INZ004-005-014>016-021>024-272200-
NORTH CENTRAL INDIANA

CITY           SKY/WX    TMP DP  RH WIND       PRES   REMARKS
GOSHEN         CLOUDY    48  46  93 SW15      29.98R FOG
PERU/GRISSOM   CLOUDY    46  46 100 W17       30.03R FOG
SOUTH BEND     CLOUDY    44  41  89 W21G30    30.02R
WARSAW +       CLOUDY    46  45  93 SW10G20   29.99R FOG

$$

INZ006>009-017-018-025>027-272200-
NORTHEAST INDIANA

CITY           SKY/WX    TMP DP  RH WIND       PRES   REMARKS
ANGOLA *+      CLOUDY    46  45  93 W12       29.96R
FORT WAYNE     CLOUDY    47  44  90 SW16      30.02R

$$

INZ028-029-035-036-043>045-051>053-272200-
WEST CENTRAL INDIANA

CITY           SKY/WX    TMP DP  RH WIND       PRES   REMARKS
GREENCASTLE +  FOG       45  43  93 SW7       30.09R VSB 1/2
LAFAYETTE      CLOUDY    45  44  97 W17G28    30.07R FOG
TERRE HAUTE    CLOUDY    48  46  93 W10       30.10R FOG

$$

INZ030>032-037>040-046>048-054>057-064-065-272200-
CENTRAL INDIANA

CITY           SKY/WX    TMP DP  RH WIND       PRES   REMARKS
ANDERSON       CLOUDY    46  46 100 S12       30.07
CP ATTERBURY + CLOUDY    46  45  93 MISG      30.09S
COLUMBUS       LGT RAIN  46  45  93 SW6       30.09S FOG
INDIANAPOLIS   DRZL/FOG  46  45  96 SW12      30.07R VSB 1/2
-EAGLE CREEK   CLOUDY    46  45  96 SW6       30.06R FOG
KOKOMO *+      CLOUDY    46  45  93 W17       30.04R
MT COMFORT *+  CLOUDY    46 N/A N/A SW9       30.07R
SHELBYVILLE    CLOUDY    48  45  89 SW9       30.07F

$$

INZ033-034-041-042-049-050-058-059-272200-
EAST CENTRAL INDIANA

CITY           SKY/WX    TMP DP  RH WIND       PRES   REMARKS
MUNCIE         CLOUDY    47  45  93 SW10      30.05R FOG

$$

INZ060-061-067>069-081>083-085>088-272200-
SOUTHWEST INDIANA

CITY           SKY/WX    TMP DP  RH WIND       PRES   REMARKS
EVANSVILLE     CLOUDY    50  48  93 S6        30.11F FOG
HUNTINGBURG *+ CLOUDY    46  45  93 SW6       30.13R

$$

INZ062-063-066-070>080-084-089>092-272200-
SOUTH CENTRAL AND SOUTHEAST INDIANA

CITY           SKY/WX    TMP DP  RH WIND       PRES   REMARKS
BLOOMINGTON    CLOUDY    47  46  97 SW8       30.09R

$$




USA.gov is the U.S. government's official web portal to all federal, state and local government web resources and services.